Regional Weather Roundup
Issued by NWS

Home | Current Version | Previous Version | Text Only | Print | Product List | Glossary On
Versions: 1 2 3 4 5 6 7 8 9 10 11 12 13 14 15 16 17 18 19 20 21 22 23 24 25 26 27 28 29 30 31 32 33 34 35 36 37 38 39 40 41 42 43 44 45 46 47 48 49 50
000
ASUS45 KCYS 310510
RWRWY

WYOMING REGIONAL WEATHER ROUNDUP
NATIONAL WEATHER SERVICE CHEYENNE WY
1100 PM MDT SUN AUG 30 2015

NOTE:  "FAIR" INDICATES FEW OR NO CLOUDS BELOW 12,000 FEET
WITH NO SIGNIFICANT WEATHER AND/OR OBSTRUCTIONS TO VISIBILITY.

WYZ001-310600-
YELLOWSTONE NATIONAL PARK

CITY           SKY/WX    TMP DP  RH WIND       PRES   REMARKS
LK YELLOWSTONE   N/A     44  31  60 W5        30.17S
W YELLOWSTONE  NOT AVBL

$$
WYZ002>013-054>058-071-098>099-310600-
NORTHERN WYOMING

CITY           SKY/WX    TMP DP  RH WIND       PRES   REMARKS
JACKSON        FAIR      63  23  22 SW12      30.13R
CODY           FAIR      68  32  26 SW9       29.92R
GREYBULL       FAIR      76  34  21 N6        29.82R
WORLAND        FAIR      73  47  39 W8        29.84R
SHERIDAN       MOCLDY    72  51  47 NW10      29.82R
BUFFALO        FAIR      76  41  28 W14       29.90R
GILLETTE       FAIR      69  51  52 S7        29.83R
HULETT         FAIR      73  45  35 S12       29.82S
NEWCASTLE      FAIR      72  43  35 SE8       29.87S

$$
WYZ014>020-022>026-101>103-310600-
CENTRAL WYOMING

CITY           SKY/WX    TMP DP  RH WIND       PRES   REMARKS
BIG PINEY      FAIR      56  35  45 N9        30.13S
PINEDALE       FAIR      59  37  44 N5        30.14S
DUBOIS         FAIR      55  36  47 NW13      30.11R
LANDER         FAIR      66  42  41 E8        29.96S
RIVERTON       FAIR      69  42  37 W12       29.97R
CASPER         FAIR      72  43  35 SW18G26   29.97S
DOUGLAS        FAIR      78  42  27 SW10      29.94F

$$
WYZ021-027>030-104>119-310600-
SOUTHERN WYOMING

CITY           SKY/WX    TMP DP  RH WIND       PRES   REMARKS
EVANSTON       FAIR      57  44  62 S6        30.16S
KEMMERER       FAIR      59  43  55 S8        30.17S
FORT BRIDGER     N/A     55  52  88 S13       30.19S
ROCK SPRINGS   LGT RAIN  56  50  80 W17       30.20R
DIXON          FAIR      64  47  54 CALM      30.18S
RAWLINS        FAIR      66  42  41 SW13      30.14S
SARATOGA       FAIR      63  46  55 SE12      30.18S
LARAMIE        FAIR      61  46  57 S9        30.19R
CHEYENNE       FAIR      69  46  43 NW9       30.09S
TORRINGTON     FAIR      79  45  29 W9        29.89R
PINE BLUFFS    FAIR      72  43  35 E8        30.03R

$$


USA.gov is the U.S. government's official web portal to all federal, state and local government web resources and services.